SWQ09 PCIS-PLPA

Flight info

Callsign SWQ09
Flight time 1h 57m
Altitude 37000
Route DULCE EBEBE
Aircraft B738/M-SDE2E3FGHIRWXY/LB1

Departure

Time 2026-04-28 18:52
Airport Canton Island Airport (PCIS)

Arrival

Time 2026-04-28 20:49
Airport Palmyra (Cooper) Airport (PLPA)
Time Latitude Longitude Altitude Speed Heading
2026-04-28 18:43 -2.76887 -171.71777 4 ft 0 kts 65°
2026-04-28 18:46 -2.76886 -171.71775 3 ft 1 kts 66°
2026-04-28 18:46 -2.76885 -171.71771 2 ft 1 kts 68°
2026-04-28 18:46 -2.76883 -171.71766 1 ft 1 kts 70°
2026-04-28 18:46 -2.76880 -171.71759 0 ft 1 kts 72°
2026-04-28 18:47 -2.76878 -171.71750 2 ft 1 kts 75°
2026-04-28 18:47 -2.76876 -171.71740 2 ft 2 kts 79°
2026-04-28 18:47 -2.76875 -171.71729 2 ft 2 kts 83°
2026-04-28 18:47 -2.76874 -171.71717 2 ft 2 kts 87°
2026-04-28 18:48 -2.76874 -171.71710 2 ft 0 kts 89°
2026-04-28 18:48 -2.76867 -171.71700 3 ft 1 kts 29°
2026-04-28 18:48 -2.76862 -171.71709 3 ft 2 kts 282°
2026-04-28 18:49 -2.76863 -171.71746 4 ft 8 kts 268°
2026-04-28 18:49 -2.76848 -171.71789 2 ft 12 kts 304°
2026-04-28 18:49 -2.76722 -171.71847 2 ft 15 kts 339°
2026-04-28 18:49 -2.76654 -171.71821 2 ft 13 kts 80°
2026-04-28 18:50 -2.76655 -171.71778 4 ft 0 kts 99°
2026-04-28 18:51 -2.76659 -171.71756 2 ft 21 kts 101°
2026-04-28 18:51 -2.76740 -171.71360 3 ft 94 kts 102°
2026-04-28 18:51 -2.76924 -171.70508 19 ft 153 kts 102°
2026-04-28 18:52 -2.77118 -171.69448 650 ft 154 kts 99°
2026-04-28 18:52 -2.77280 -171.68339 1229 ft 165 kts 98°
2026-04-28 18:52 -2.77458 -171.67231 1852 ft 160 kts 97°
2026-04-28 18:52 -2.77249 -171.66161 2367 ft 167 kts 53°
2026-04-28 18:53 -2.76219 -171.65459 2627 ft 194 kts 29°
2026-04-28 18:53 -2.74970 -171.64812 2813 ft 214 kts 32°
2026-04-28 18:53 -2.73606 -171.64013 2971 ft 234 kts 34°
2026-04-28 18:53 -2.72210 -171.63091 3126 ft 253 kts 37°
2026-04-28 18:54 -2.70754 -171.62019 3547 ft 264 kts 40°
2026-04-28 18:54 -2.69318 -171.60863 4244 ft 265 kts 42°
2026-04-28 18:54 -2.67921 -171.59654 4926 ft 267 kts 44°
2026-04-28 18:54 -2.66542 -171.58391 5572 ft 270 kts 45°
2026-04-28 18:55 -2.65176 -171.57084 6255 ft 273 kts 46°
2026-04-28 18:55 -2.64278 -171.56201 6683 ft 275 kts 47°
2026-04-28 18:55 -2.62467 -171.54374 7576 ft 278 kts 47°
2026-04-28 18:55 -2.61117 -171.52981 8272 ft 280 kts 48°
2026-04-28 18:56 -2.59760 -171.51563 8965 ft 283 kts 48°
2026-04-28 18:56 -2.58402 -171.50130 9710 ft 285 kts 48°
2026-04-28 18:56 -2.57031 -171.48673 10264 ft 294 kts 49°
2026-04-28 18:56 -2.55601 -171.47144 10412 ft 316 kts 49°
2026-04-28 18:57 -2.54055 -171.45484 10596 ft 335 kts 49°
2026-04-28 18:57 -2.52446 -171.43754 11042 ft 343 kts 49°
2026-04-28 18:57 -2.50816 -171.41999 11660 ft 346 kts 49°
2026-04-28 18:57 -2.49176 -171.40232 12293 ft 348 kts 49°
2026-04-28 18:58 -2.47521 -171.38447 12937 ft 351 kts 49°
2026-04-28 18:58 -2.45855 -171.36649 13565 ft 354 kts 49°
2026-04-28 18:58 -2.44172 -171.34831 14148 ft 358 kts 49°
2026-04-28 18:58 -2.42476 -171.32999 14737 ft 360 kts 49°
2026-04-28 18:59 -2.40768 -171.31154 15330 ft 363 kts 49°
2026-04-28 18:59 -2.39045 -171.29292 15923 ft 366 kts 50°
2026-04-28 18:59 -2.37309 -171.27416 16490 ft 369 kts 50°
2026-04-28 18:59 -2.35561 -171.25526 17062 ft 372 kts 50°
2026-04-28 19:00 -2.33794 -171.23617 17623 ft 375 kts 50°
2026-04-28 19:00 -2.32016 -171.21695 18172 ft 378 kts 50°
2026-04-28 19:00 -2.30221 -171.19756 18643 ft 381 kts 50°
2026-04-28 19:00 -2.28411 -171.17800 19088 ft 385 kts 50°
2026-04-28 19:01 -2.26585 -171.15827 19530 ft 388 kts 49°
2026-04-28 19:01 -2.24743 -171.13838 19960 ft 391 kts 49°
2026-04-28 19:01 -2.22883 -171.11829 20379 ft 395 kts 49°
2026-04-28 19:01 -2.21008 -171.09802 20796 ft 398 kts 49°
2026-04-28 19:02 -2.19119 -171.07762 21208 ft 401 kts 49°
2026-04-28 19:02 -2.17242 -171.05735 21605 ft 404 kts 49°
2026-04-28 19:02 -2.15322 -171.03661 22004 ft 408 kts 49°
2026-04-28 19:02 -2.13385 -171.01569 22380 ft 411 kts 49°
2026-04-28 19:03 -2.11439 -170.99467 22753 ft 414 kts 49°
2026-04-28 19:03 -2.09473 -170.97344 23120 ft 417 kts 49°
2026-04-28 19:03 -2.07498 -170.95211 23470 ft 420 kts 48°
2026-04-28 19:03 -2.05508 -170.93062 23767 ft 423 kts 48°
2026-04-28 19:04 -2.03501 -170.90895 24066 ft 425 kts 48°
2026-04-28 19:04 -2.01490 -170.88723 24355 ft 427 kts 48°
2026-04-28 19:04 -1.99462 -170.86534 24679 ft 429 kts 48°
2026-04-28 19:04 -1.97431 -170.84341 24975 ft 431 kts 47°
2026-04-28 19:05 -1.95392 -170.82140 25306 ft 432 kts 48°
2026-04-28 19:05 -1.93337 -170.79922 25498 ft 437 kts 47°
2026-04-28 19:05 -1.91272 -170.77692 25854 ft 437 kts 47°
2026-04-28 19:05 -1.89196 -170.75451 26070 ft 441 kts 47°
2026-04-28 19:06 -1.87129 -170.73219 26310 ft 445 kts 47°
2026-04-28 19:06 -1.85705 -170.71682 26445 ft 447 kts 47°
2026-04-28 19:06 -1.82869 -170.68620 26808 ft 450 kts 46°
2026-04-28 19:06 -1.80735 -170.66318 27090 ft 452 kts 47°
2026-04-28 19:07 -1.78591 -170.64003 27350 ft 454 kts 47°
2026-04-28 19:07 -1.76442 -170.61683 27607 ft 456 kts 47°
2026-04-28 19:07 -1.74278 -170.59349 27852 ft 459 kts 46°
2026-04-28 19:07 -1.72104 -170.57002 28109 ft 460 kts 45°
2026-04-28 19:08 -1.69923 -170.54647 28359 ft 463 kts 45°
2026-04-28 19:08 -1.67733 -170.52284 28599 ft 465 kts 46°
2026-04-28 19:08 -1.65534 -170.49911 28838 ft 467 kts 46°
2026-04-28 19:08 -1.63320 -170.47522 29085 ft 468 kts 46°
2026-04-28 19:09 -1.61129 -170.45157 29320 ft 470 kts 45°
2026-04-28 19:09 -1.58901 -170.42753 29547 ft 472 kts 45°
2026-04-28 19:09 -1.56665 -170.40340 29770 ft 474 kts 45°
2026-04-28 19:09 -1.54412 -170.37910 29988 ft 476 kts 45°
2026-04-28 19:10 -1.52151 -170.35469 30186 ft 478 kts 45°
2026-04-28 19:10 -1.49889 -170.33028 30411 ft 478 kts 45°
2026-04-28 19:10 -1.47632 -170.30593 30718 ft 477 kts 45°
2026-04-28 19:10 -1.45385 -170.28167 31045 ft 474 kts 45°
2026-04-28 19:11 -1.43142 -170.25747 31351 ft 473 kts 45°
2026-04-28 19:11 -1.40906 -170.23334 31628 ft 473 kts 45°
2026-04-28 19:11 -1.38674 -170.20926 31905 ft 472 kts 46°
2026-04-28 19:11 -1.36444 -170.18521 32212 ft 471 kts 45°
2026-04-28 19:12 -1.34222 -170.16124 32530 ft 470 kts 45°
2026-04-28 19:12 -1.31998 -170.13725 32750 ft 471 kts 45°
2026-04-28 19:12 -1.29770 -170.11322 32992 ft 471 kts 45°
2026-04-28 19:12 -1.27543 -170.08920 33297 ft 470 kts 45°
2026-04-28 19:13 -1.25352 -170.06556 33663 ft 468 kts 45°
2026-04-28 19:13 -1.23140 -170.04171 33982 ft 467 kts 46°
2026-04-28 19:13 -1.20930 -170.01787 34230 ft 467 kts 45°
2026-04-28 19:13 -1.18720 -169.99405 34465 ft 467 kts 45°
2026-04-28 19:14 -1.16513 -169.97026 34730 ft 465 kts 46°
2026-04-28 19:14 -1.14313 -169.94651 35004 ft 464 kts 45°
2026-04-28 19:14 -1.12122 -169.92287 35225 ft 465 kts 46°
2026-04-28 19:14 -1.09917 -169.89909 35357 ft 467 kts 46°
2026-04-28 19:15 -1.07703 -169.87523 35581 ft 467 kts 46°
2026-04-28 19:15 -1.05502 -169.85150 35898 ft 464 kts 46°
2026-04-28 19:15 -1.03308 -169.82784 36190 ft 463 kts 46°
2026-04-28 19:15 -1.01860 -169.81222 36361 ft 462 kts 46°
2026-04-28 19:16 -0.98968 -169.78102 36622 ft 462 kts 46°
2026-04-28 19:16 -0.96777 -169.75741 36836 ft 462 kts 46°
2026-04-28 19:16 -0.92410 -169.71034 36921 ft 462 kts 46°
2026-04-28 19:17 -0.88037 -169.66322 36917 ft 462 kts 46°
2026-04-28 19:17 -0.83671 -169.61611 36919 ft 462 kts 46°
2026-04-28 19:18 -0.79301 -169.56898 36920 ft 462 kts 46°
2026-04-28 19:18 -0.74930 -169.52189 36920 ft 462 kts 46°
2026-04-28 19:19 -0.70562 -169.47481 36921 ft 462 kts 46°
2026-04-28 19:19 -0.66191 -169.42769 36919 ft 462 kts 46°
2026-04-28 19:20 -0.61851 -169.38088 36923 ft 462 kts 46°
2026-04-28 19:20 -0.57479 -169.33375 36924 ft 463 kts 46°
2026-04-28 19:21 -0.53103 -169.28656 36926 ft 463 kts 46°
2026-04-28 19:21 -0.48724 -169.23936 36924 ft 463 kts 46°
2026-04-28 19:22 -0.45797 -169.20773 36925 ft 463 kts 46°
2026-04-28 19:22 -0.40708 -169.15278 36928 ft 464 kts 46°
2026-04-28 19:23 -0.36320 -169.10548 36922 ft 464 kts 46°
2026-04-28 19:23 -0.31932 -169.05819 36924 ft 464 kts 45°
2026-04-28 19:24 -0.27543 -169.01090 36925 ft 464 kts 45°
2026-04-28 19:24 -0.23158 -168.96363 36927 ft 464 kts 45°
2026-04-28 19:25 -0.18770 -168.91634 36927 ft 464 kts 45°
2026-04-28 19:25 -0.14384 -168.86908 36925 ft 464 kts 45°
2026-04-28 19:26 -0.10004 -168.82186 36926 ft 463 kts 45°
2026-04-28 19:26 -0.05646 -168.77490 36925 ft 463 kts 45°
2026-04-28 19:27 -0.01263 -168.72766 36926 ft 463 kts 45°
2026-04-28 19:27 0.03123 -168.68038 36920 ft 464 kts 45°
2026-04-28 19:28 0.07511 -168.63310 36928 ft 464 kts 45°
2026-04-28 19:28 0.11904 -168.58575 36928 ft 465 kts 45°
2026-04-28 19:29 0.15556 -168.54639 36928 ft 465 kts 45°
2026-04-28 19:29 0.20705 -168.49090 36926 ft 466 kts 45°
2026-04-28 19:30 0.25116 -168.44336 36929 ft 467 kts 45°
2026-04-28 19:30 0.29532 -168.39575 36929 ft 467 kts 45°
2026-04-28 19:31 0.33926 -168.34840 36926 ft 468 kts 45°
2026-04-28 19:31 0.38348 -168.30073 36926 ft 468 kts 45°
2026-04-28 19:32 0.42772 -168.25305 36926 ft 468 kts 45°
2026-04-28 19:32 0.47194 -168.20539 36925 ft 467 kts 45°
2026-04-28 19:33 0.51617 -168.15771 36926 ft 467 kts 45°
2026-04-28 19:33 0.56033 -168.11011 36925 ft 467 kts 45°
2026-04-28 19:34 0.60446 -168.06254 36924 ft 466 kts 45°
2026-04-28 19:34 0.64857 -168.01499 36925 ft 466 kts 45°
2026-04-28 19:35 0.69264 -167.96748 36923 ft 466 kts 45°
2026-04-28 19:35 0.73668 -167.92000 36923 ft 466 kts 44°
2026-04-28 19:36 0.78072 -167.87253 36919 ft 465 kts 44°
2026-04-28 19:36 0.82474 -167.82507 36926 ft 465 kts 44°
2026-04-28 19:37 0.86138 -167.78558 36923 ft 466 kts 44°
2026-04-28 19:37 0.91258 -167.73037 36925 ft 466 kts 44°
2026-04-28 19:38 0.95667 -167.68283 36924 ft 466 kts 44°
2026-04-28 19:38 1.00088 -167.63517 36923 ft 467 kts 44°
2026-04-28 19:39 1.04504 -167.58754 36927 ft 467 kts 44°
2026-04-28 19:39 1.08922 -167.53990 36925 ft 467 kts 44°
2026-04-28 19:40 1.13343 -167.49222 36929 ft 467 kts 44°
2026-04-28 19:40 1.17760 -167.44459 36921 ft 467 kts 44°
2026-04-28 19:41 1.22148 -167.39726 36926 ft 466 kts 44°
2026-04-28 19:41 1.26556 -167.34972 36923 ft 466 kts 44°
2026-04-28 19:42 1.30963 -167.30218 36922 ft 465 kts 44°
2026-04-28 19:42 1.34621 -167.26272 36922 ft 465 kts 44°
2026-04-28 19:43 1.39752 -167.20737 36926 ft 464 kts 44°
2026-04-28 19:43 1.44137 -167.16007 36922 ft 464 kts 44°
2026-04-28 19:44 1.48526 -167.11272 36926 ft 464 kts 44°
2026-04-28 19:44 1.52877 -167.06578 36926 ft 463 kts 44°
2026-04-28 19:45 1.57258 -167.01850 36923 ft 463 kts 44°
2026-04-28 19:45 1.61638 -166.97124 36923 ft 463 kts 44°
2026-04-28 19:46 1.66017 -166.92398 36924 ft 463 kts 44°
2026-04-28 19:46 1.70402 -166.87666 36924 ft 463 kts 44°
2026-04-28 19:47 1.74781 -166.82939 36924 ft 463 kts 45°
2026-04-28 19:47 1.79163 -166.78210 36925 ft 464 kts 45°
2026-04-28 19:48 1.83548 -166.73477 36924 ft 463 kts 45°
2026-04-28 19:48 1.87928 -166.68747 36938 ft 463 kts 44°
2026-04-28 19:49 1.92304 -166.64023 36922 ft 463 kts 44°
2026-04-28 19:49 1.96643 -166.59338 36925 ft 462 kts 44°
2026-04-28 19:50 2.03195 -166.52263 36922 ft 461 kts 44°
2026-04-28 19:51 2.07543 -166.47567 36924 ft 460 kts 44°
2026-04-28 19:51 2.11893 -166.42869 36931 ft 460 kts 44°
2026-04-28 19:52 2.16243 -166.38171 36932 ft 460 kts 44°
2026-04-28 19:52 2.20588 -166.33477 36932 ft 460 kts 44°
2026-04-28 19:53 2.24905 -166.28813 36934 ft 460 kts 44°
2026-04-28 19:53 2.29258 -166.24111 36927 ft 460 kts 44°
2026-04-28 19:54 2.33617 -166.19413 36935 ft 460 kts 44°
2026-04-28 19:54 2.37970 -166.14713 36935 ft 461 kts 44°
2026-04-28 19:55 2.42302 -166.10030 36933 ft 461 kts 44°
2026-04-28 19:55 2.46660 -166.05318 36935 ft 461 kts 44°
2026-04-28 19:56 2.51020 -166.00603 36933 ft 461 kts 44°
2026-04-28 19:56 2.55379 -165.95888 36935 ft 461 kts 44°
2026-04-28 19:57 2.59484 -165.90950 36918 ft 466 kts 59°
2026-04-28 19:57 2.60702 -165.87934 36946 ft 470 kts 73°
2026-04-28 19:57 2.61172 -165.84696 36930 ft 473 kts 89°
2026-04-28 19:58 2.60999 -165.78159 36939 ft 474 kts 90°
2026-04-28 19:58 2.60783 -165.71562 36931 ft 475 kts 90°
2026-04-28 19:59 2.60621 -165.64948 36936 ft 476 kts 89°
2026-04-28 19:59 2.60490 -165.58312 36935 ft 478 kts 89°
2026-04-28 20:00 2.60365 -165.51659 36935 ft 479 kts 89°
2026-04-28 20:00 2.60238 -165.44999 36938 ft 479 kts 89°
2026-04-28 20:01 2.60108 -165.38319 36930 ft 480 kts 89°
2026-04-28 20:01 2.59978 -165.31632 36938 ft 481 kts 89°
2026-04-28 20:02 2.59846 -165.24928 36934 ft 482 kts 89°
2026-04-28 20:02 2.59714 -165.18226 36935 ft 482 kts 89°
2026-04-28 20:03 2.59583 -165.11555 36934 ft 482 kts 89°
2026-04-28 20:03 2.59450 -165.04853 36936 ft 482 kts 89°
2026-04-28 20:04 2.59318 -164.98144 36937 ft 482 kts 89°
2026-04-28 20:04 2.59185 -164.91440 36937 ft 482 kts 89°
2026-04-28 20:05 2.59051 -164.84741 36936 ft 481 kts 89°
2026-04-28 20:05 2.58918 -164.78046 36937 ft 481 kts 89°
2026-04-28 20:06 2.58784 -164.71356 36936 ft 481 kts 89°
2026-04-28 20:06 2.59131 -164.64726 36919 ft 474 kts 69°
2026-04-28 20:06 2.60461 -164.61754 36944 ft 466 kts 54°
2026-04-28 20:07 2.62431 -164.59218 36931 ft 459 kts 40°
2026-04-28 20:07 2.67384 -164.55269 36939 ft 455 kts 33°
2026-04-28 20:08 2.71606 -164.52109 36934 ft 456 kts 33°
2026-04-28 20:08 2.77518 -164.47673 36937 ft 457 kts 33°
2026-04-28 20:09 2.82592 -164.43815 36933 ft 459 kts 34°
2026-04-28 20:09 2.86845 -164.40562 36935 ft 459 kts 34°
2026-04-28 20:10 2.91927 -164.36668 36937 ft 460 kts 34°
2026-04-28 20:10 2.96962 -164.32808 36937 ft 458 kts 34°
2026-04-28 20:11 3.02028 -164.28927 36935 ft 458 kts 34°
2026-04-28 20:11 3.07085 -164.25053 36935 ft 457 kts 34°
2026-04-28 20:12 3.12136 -164.21184 36932 ft 457 kts 34°
2026-04-28 20:12 3.17190 -164.17311 36933 ft 457 kts 34°
2026-04-28 20:13 3.22239 -164.13441 36936 ft 457 kts 34°
2026-04-28 20:13 3.27295 -164.09566 36936 ft 458 kts 34°
2026-04-28 20:14 3.32320 -164.05715 36942 ft 458 kts 34°
2026-04-28 20:14 3.37382 -164.01834 36937 ft 458 kts 34°
2026-04-28 20:15 3.42434 -163.97959 36933 ft 457 kts 34°
2026-04-28 20:15 3.47489 -163.94082 36932 ft 457 kts 34°
2026-04-28 20:16 3.52540 -163.90209 36932 ft 457 kts 34°
2026-04-28 20:16 3.57564 -163.86355 36932 ft 457 kts 34°
2026-04-28 20:17 3.62619 -163.82477 36932 ft 457 kts 34°
2026-04-28 20:17 3.67669 -163.78605 36931 ft 457 kts 34°
2026-04-28 20:18 3.72717 -163.74733 36931 ft 457 kts 34°
2026-04-28 20:18 3.77735 -163.70882 36932 ft 457 kts 34°
2026-04-28 20:19 3.82775 -163.67013 36933 ft 457 kts 34°
2026-04-28 20:19 3.87822 -163.63138 36937 ft 457 kts 34°
2026-04-28 20:20 3.92838 -163.59284 36849 ft 447 kts 34°
2026-04-28 20:20 3.95286 -163.57401 36488 ft 441 kts 34°
2026-04-28 20:20 3.97718 -163.55533 35948 ft 441 kts 34°
2026-04-28 20:20 4.00152 -163.53664 35400 ft 441 kts 34°
2026-04-28 20:21 4.02579 -163.51801 34954 ft 439 kts 34°
2026-04-28 20:21 4.04992 -163.49948 34574 ft 435 kts 34°
2026-04-28 20:21 4.07379 -163.48114 34205 ft 431 kts 34°
2026-04-28 20:21 4.09755 -163.46288 33798 ft 428 kts 34°
2026-04-28 20:22 4.12116 -163.44474 33325 ft 426 kts 35°
2026-04-28 20:22 4.14465 -163.42669 32858 ft 424 kts 35°
2026-04-28 20:22 4.16804 -163.40872 32400 ft 423 kts 35°
2026-04-28 20:22 4.19129 -163.39085 31966 ft 421 kts 35°
2026-04-28 20:23 4.21445 -163.37305 31539 ft 419 kts 35°
2026-04-28 20:23 4.23753 -163.35532 31119 ft 417 kts 36°
2026-04-28 20:23 4.26024 -163.33786 30709 ft 415 kts 36°
2026-04-28 20:23 4.28321 -163.32021 30300 ft 414 kts 36°
2026-04-28 20:24 4.30597 -163.30271 29891 ft 412 kts 36°
2026-04-28 20:24 4.32871 -163.28523 29384 ft 412 kts 36°
2026-04-28 20:24 4.35143 -163.26777 28879 ft 411 kts 36°
2026-04-28 20:24 4.37402 -163.25040 28472 ft 407 kts 36°
2026-04-28 20:25 4.39642 -163.23316 28089 ft 404 kts 36°
2026-04-28 20:25 4.41861 -163.21610 27700 ft 401 kts 37°
2026-04-28 20:25 4.44065 -163.19914 27299 ft 398 kts 37°
2026-04-28 20:25 4.46256 -163.18228 26895 ft 396 kts 37°
2026-04-28 20:26 4.48410 -163.16571 26502 ft 393 kts 37°
2026-04-28 20:26 4.50577 -163.14905 26117 ft 391 kts 37°
2026-04-28 20:26 4.52734 -163.13245 25729 ft 389 kts 37°
2026-04-28 20:26 4.54878 -163.11595 25370 ft 387 kts 37°
2026-04-28 20:27 4.57014 -163.09952 24948 ft 386 kts 37°
2026-04-28 20:27 4.59138 -163.08317 24638 ft 382 kts 38°
2026-04-28 20:27 4.61216 -163.06718 24257 ft 381 kts 38°
2026-04-28 20:27 4.63310 -163.05106 23952 ft 378 kts 38°
2026-04-28 20:28 4.65390 -163.03506 23625 ft 375 kts 38°
2026-04-28 20:28 4.67448 -163.01921 23280 ft 372 kts 38°
2026-04-28 20:28 4.69498 -163.00344 22856 ft 370 kts 38°
2026-04-28 20:28 4.71539 -162.98773 22507 ft 367 kts 38°
2026-04-28 20:29 4.73553 -162.97223 22135 ft 364 kts 39°
2026-04-28 20:29 4.75558 -162.95680 21708 ft 364 kts 38°
2026-04-28 20:29 4.77561 -162.94136 21340 ft 361 kts 38°
2026-04-28 20:29 4.79546 -162.92605 21025 ft 357 kts 39°
2026-04-28 20:30 4.81486 -162.91112 20669 ft 355 kts 38°
2026-04-28 20:30 4.83466 -162.89586 20342 ft 352 kts 39°
2026-04-28 20:30 4.85374 -162.88116 20025 ft 350 kts 38°
2026-04-28 20:30 4.87299 -162.86634 19695 ft 347 kts 38°
2026-04-28 20:31 4.89206 -162.85165 19385 ft 344 kts 39°
2026-04-28 20:31 4.91100 -162.83706 19072 ft 342 kts 38°
2026-04-28 20:31 4.92981 -162.82256 18759 ft 339 kts 39°
2026-04-28 20:31 4.94842 -162.80823 18456 ft 337 kts 39°
2026-04-28 20:32 4.96695 -162.79395 18139 ft 334 kts 39°
2026-04-28 20:32 4.98530 -162.77982 17789 ft 331 kts 39°
2026-04-28 20:32 5.00355 -162.76576 17400 ft 330 kts 40°
2026-04-28 20:32 5.02173 -162.75176 17067 ft 328 kts 39°
2026-04-28 20:33 5.03975 -162.73788 16707 ft 326 kts 38°
2026-04-28 20:33 5.05769 -162.72403 16381 ft 324 kts 39°
2026-04-28 20:33 5.07550 -162.71029 16009 ft 323 kts 39°
2026-04-28 20:33 5.09326 -162.69658 15687 ft 320 kts 38°
2026-04-28 20:34 5.11088 -162.68299 15330 ft 320 kts 39°
2026-04-28 20:34 5.12851 -162.66940 14993 ft 318 kts 39°
2026-04-28 20:34 5.14598 -162.65592 14681 ft 316 kts 39°
2026-04-28 20:34 5.16340 -162.64248 14351 ft 315 kts 40°
2026-04-28 20:35 5.18068 -162.62916 14053 ft 313 kts 40°
2026-04-28 20:35 5.19767 -162.61604 13731 ft 312 kts 39°
2026-04-28 20:35 5.21481 -162.60282 13393 ft 310 kts 39°
2026-04-28 20:35 5.23181 -162.58971 13073 ft 307 kts 39°
2026-04-28 20:36 5.24868 -162.57669 12754 ft 305 kts 40°
2026-04-28 20:36 5.26544 -162.56376 12416 ft 303 kts 39°
2026-04-28 20:36 5.28213 -162.55087 12069 ft 302 kts 39°
2026-04-28 20:36 5.29875 -162.53805 11754 ft 300 kts 39°
2026-04-28 20:37 5.31524 -162.52532 11446 ft 298 kts 39°
2026-04-28 20:37 5.33165 -162.51265 11144 ft 296 kts 39°
2026-04-28 20:37 5.34794 -162.50008 10828 ft 295 kts 39°
2026-04-28 20:37 5.36417 -162.48754 10509 ft 293 kts 40°
2026-04-28 20:38 5.38032 -162.47507 10212 ft 292 kts 39°
2026-04-28 20:38 5.39642 -162.46264 9902 ft 291 kts 40°
2026-04-28 20:38 5.41242 -162.45029 9576 ft 289 kts 40°
2026-04-28 20:38 5.42833 -162.43800 9241 ft 288 kts 39°
2026-04-28 20:39 5.44417 -162.42577 8941 ft 286 kts 40°
2026-04-28 20:39 5.45970 -162.41378 8623 ft 285 kts 40°
2026-04-28 20:39 5.47538 -162.40167 8311 ft 283 kts 40°
2026-04-28 20:39 5.49097 -162.38963 8014 ft 282 kts 40°
2026-04-28 20:40 5.50645 -162.37767 7690 ft 281 kts 40°
2026-04-28 20:40 5.52190 -162.36573 7384 ft 279 kts 40°
2026-04-28 20:40 5.53727 -162.35386 7085 ft 278 kts 40°
2026-04-28 20:40 5.55256 -162.34205 6796 ft 277 kts 40°
2026-04-28 20:41 5.56868 -162.33158 6479 ft 279 kts 23°
2026-04-28 20:41 5.58760 -162.32721 6204 ft 279 kts 11°
2026-04-28 20:41 5.60682 -162.32467 5914 ft 278 kts
2026-04-28 20:41 5.62596 -162.32236 5615 ft 276 kts
2026-04-28 20:42 5.64501 -162.32009 5298 ft 275 kts
2026-04-28 20:42 5.66397 -162.31786 5004 ft 274 kts
2026-04-28 20:42 5.68287 -162.31567 4708 ft 272 kts
2026-04-28 20:42 5.70164 -162.31350 4408 ft 271 kts
2026-04-28 20:43 5.72031 -162.31133 4092 ft 270 kts
2026-04-28 20:43 5.73899 -162.30913 3772 ft 270 kts
2026-04-28 20:43 5.75752 -162.30695 3505 ft 267 kts
2026-04-28 20:43 5.77575 -162.30482 3215 ft 267 kts
2026-04-28 20:44 5.79413 -162.30267 2919 ft 266 kts
2026-04-28 20:44 5.81250 -162.30047 2648 ft 264 kts 11°
2026-04-28 20:44 5.82938 -162.29420 2336 ft 258 kts 39°
2026-04-28 20:44 5.84069 -162.28083 2065 ft 251 kts 65°
2026-04-28 20:45 5.84508 -162.26416 1795 ft 247 kts 90°
2026-04-28 20:45 5.84351 -162.24686 1542 ft 248 kts 90°
2026-04-28 20:45 5.84666 -162.23040 1511 ft 235 kts 75°
2026-04-28 20:45 5.85086 -162.21508 1408 ft 218 kts 76°
2026-04-28 20:46 5.85452 -162.20120 1274 ft 192 kts 76°
2026-04-28 20:46 5.85782 -162.18880 1043 ft 178 kts 76°
2026-04-28 20:46 5.86100 -162.17675 1044 ft 182 kts 76°
2026-04-28 20:46 5.86396 -162.16460 1008 ft 178 kts 79°
2026-04-28 20:47 5.86651 -162.15254 1012 ft 173 kts 79°
2026-04-28 20:47 5.86906 -162.14107 982 ft 166 kts 80°
2026-04-28 20:47 5.87099 -162.12945 929 ft 169 kts 85°
2026-04-28 20:47 5.87252 -162.11810 749 ft 157 kts 77°
2026-04-28 20:48 5.87635 -162.10844 546 ft 140 kts 67°
2026-04-28 20:48 5.87982 -162.10004 403 ft 128 kts 70°
2026-04-28 20:48 5.88327 -162.09193 228 ft 121 kts 74°
2026-04-28 20:48 5.88615 -162.08416 8 ft 113 kts 68°
2026-04-28 20:49 5.88846 -162.07853 4 ft 57 kts 69°
2026-04-28 20:49 5.88929 -162.07639 9 ft 24 kts 66°
2026-04-28 20:49 5.88982 -162.07486 10 ft 23 kts 71°
2026-04-28 20:49 5.89042 -162.07358 12 ft 5 kts 29°
2026-04-28 20:50 5.89064 -162.07384 10 ft 5 kts 270°
2026-04-28 20:50 5.89039 -162.07426 13 ft 8 kts 236°
2026-04-28 20:50 5.89010 -162.07474 9 ft 8 kts 246°
2026-04-28 20:50 5.88989 -162.07523 10 ft 8 kts 246°
2026-04-28 20:51 5.88967 -162.07571 12 ft 8 kts 246°
2026-04-28 20:51 5.88938 -162.07637 9 ft 13 kts 246°
2026-04-28 20:51 5.88892 -162.07739 5 ft 19 kts 245°
2026-04-28 20:51 5.88854 -162.07831 5 ft 22 kts 247°
2026-04-28 20:52 5.88767 -162.08038 4 ft 26 kts 247°
2026-04-28 20:52 5.88691 -162.08215 7 ft 28 kts 246°
2026-04-28 20:52 5.88632 -162.08383 7 ft 17 kts 261°
2026-04-28 20:52 5.88665 -162.08434 6 ft 0 kts 312°